EW5181 Weather Reports


Display with metric or nautical units.
time (UTC)temp
F
wind
direction
speed
MPH
gust
MPH
rain 1hr
in
rain 24hr
in
rain mn
in
humidity
%
barometer
mb
20200329064535 38 267 6.0 13.0 0.00 0.00 0.00 72 1022.4
20200329063531 39 38 7.0 12.0 0.00 0.00 0.00 72 1022.2
20200329062527 39 31 5.0 12.0 0.00 0.00 0.00 72 1022.1
20200329061523 39 27 5.0 12.0 0.00 0.00 0.00 73 1022.1
20200329060522 39 18 6.0 15.0 0.00 0.00 0.00 72 1022.0
20200329055516 39 40 5.0 11.0 0.00 0.00 0.00 73 1021.8
20200329054512 38 27 4.0 10.0 0.00 0.00 0.00 73 1021.8
20200329053508 38 303 4.0 11.0 0.00 0.00 0.00 73 1021.7
20200329052505 39 329 6.0 14.0 0.00 0.00 0.00 73 1021.7
20200329051501 39 355 4.0 11.0 0.00 0.00 0.00 74 1021.5
20200329050457 39 7 5.0 11.0 0.00 0.00 0.00 74 1021.4
20200329045453 39 350 8.0 13.0 0.00 0.00 0.00 74 1021.3
20200329044449 39 26 7.0 14.0 0.00 0.00 0.00 75 1021.2
20200329043445 39 19 6.0 10.0 0.00 0.00 0.00 75 1021.3
20200329042442 40 42 4.0 11.0 0.00 0.00 0.00 75 1021.2
20200329041438 40 315 6.0 11.0 0.00 0.00 0.00 76 1021.2
20200329040433 40 9 6.0 13.0 0.00 0.00 0.00 76 1021.3
20200329035431 40 0 6.0 11.0 0.00 0.00 0.00 77 1021.3
20200329034426 40 19 6.0 12.0 0.00 0.00 0.00 78 1021.2
20200329033423 40 7 5.0 10.0 0.00 0.00 0.00 80 1021.2
20200329032419 40 21 6.0 11.0 0.00 0.00 0.00 79 1021.1
20200329031415 41 26 8.0 11.0 0.00 0.00 0.00 79 1021.0
20200329030411 41 17 4.0 9.0 0.00 0.00 0.00 79 1021.2
20200329025407 41 340 5.0 13.0 0.00 0.00 0.00 79 1021.1
20200329024426 41 321 6.0 12.0 0.00 0.00 0.00 79 1020.9
20200329023400 41 18 5.0 11.0 0.00 0.00 0.00 79 1020.8
20200329022355 41 26 6.0 10.0 0.00 0.00 0.00 79 1020.8
20200329021352 42 345 4.0 11.0 0.00 0.00 0.00 79 1020.8
20200329020348 42 10 6.0 11.0 0.00 0.00 0.00 78 1020.9
20200329015344 42 11 5.0 8.0 0.00 0.00 0.00 78 1020.8
20200329014339 42 333 5.0 12.0 0.00 0.00 0.00 77 1020.7
20200329013336 43 98 6.0 8.0 0.00 0.00 0.00 76 1020.8
20200329012332 43 355 4.0 9.0 0.00 0.00 0.00 75 1020.8
20200329011328 43 31 6.0 11.0 0.00 0.00 0.00 74 1020.8
20200329010325 43 57 4.0 10.0 0.00 0.00 0.00 72 1021.0
20200329005320 44 42 4.0 8.0 0.00 0.00 0.00 70 1020.9
20200329004316 44 29 3.0 7.0 0.00 0.00 0.00 69 1021.1
20200329003312 44 2 4.0 9.0 0.00 0.00 0.00 67 1021.0
20200329002308 45 38 4.0 9.0 0.00 0.00 0.00 65 1021.0
20200329001304 45 308 2.0 7.0 0.00 0.00 0.00 65 1021.0
20200329000301 46 27 4.0 11.0 0.00 0.00 0.00 63 1020.9
20200328235257 46 4 5.0 10.0 0.00 0.00 0.00 62 1020.8
20200328234253 46 341 3.0 8.0 0.00 0.00 0.00 61 1020.9
20200328233249 46 35 4.0 8.0 0.00 0.00 0.00 61 1020.8
20200328232245 47 357 3.0 8.0 0.00 0.00 0.00 60 1020.7
20200328231241 47 357 2.0 8.0 0.00 0.00 0.00 59 1020.6
20200328230237 47 19 3.0 6.0 0.00 0.00 0.00 58 1020.5
20200328225233 48 43 2.0 8.0 0.00 0.00 0.00 58 1020.5
20200328224229 48 349 3.0 10.0 0.00 0.00 0.00 58 1020.2
20200328223225 48 7 4.0 11.0 0.00 0.00 0.00 57 1020.1
20200328222222 48 5 5.0 11.0 0.00 0.00 0.00 57 1020.0
20200328221219 48 27 5.0 10.0 0.00 0.00 0.00 57 1020.2
20200328220213 49 15 4.0 9.0 0.00 0.00 0.00 58 1020.2
20200328215209 49 9 4.0 8.0 0.00 0.00 0.00 58 1019.9
20200328214205 49 21 6.0 11.0 0.00 0.00 0.00 57 1019.8
20200328213202 49 21 5.0 10.0 0.00 0.00 0.00 57 1019.5
20200328212157 50 33 5.0 7.0 0.00 0.00 0.00 56 1019.4
20200328211154 50 25 5.0 9.0 0.00 0.00 0.00 56 1019.2
20200328210149 51 36 5.0 12.0 0.00 0.00 0.00 55 1019.3
20200328205146 51 102 5.0 10.0 0.00 0.00 0.00 55 1019.2
20200328204142 52 9 7.0 12.0 0.00 0.00 0.00 54 1019.1
20200328203137 52 348 6.0 10.0 0.00 0.00 0.00 56 1019.0
20200328202134 53 29 4.0 9.0 0.00 0.00 0.00 57 1019.1
20200328201130 53 336 4.0 9.0 0.00 0.00 0.00 58 1018.9
20200328200127 54 61 5.0 12.0 0.00 0.00 0.00 58 1018.7
20200328195122 55 40 5.0 11.0 0.00 0.00 0.00 57 1018.6
20200328194119 55 28 8.0 11.0 0.00 0.00 0.00 55 1018.5
20200328193114 55 21 5.0 11.0 0.00 0.00 0.00 56 1018.5
20200328192110 54 38 5.0 9.0 0.00 0.00 0.00 57 1018.3
20200328191107 54 31 1.0 4.0 0.00 0.00 0.00 59 1018.1
20200328190102 54 14 1.0 2.0 0.00 0.00 0.00 58 1018.0
20200328185058 55 14 2.0 4.0 0.00 0.00 0.00 56 1017.9
20200328184055 56 336 1.0 5.0 0.00 0.00 0.00 53 1017.9
20200328183050 56 316 2.0 4.0 0.00 0.00 0.00 54 1017.7
20200328182046 56 304 1.0 3.0 0.00 0.00 0.00 53 1017.6
20200328181033 56 358 1.0 3.0 0.00 0.00 0.00 51 1017.5
20200328180034 57 322 0.0 1.0 0.00 0.00 0.00 49 1017.3
20200328175026 58 2 0.0 2.0 0.00 0.00 0.00 49 1017.3
20200328174020 59 0 2.0 3.0 0.00 0.00 0.00 47 1017.2
20200328173016 60 2 2.0 4.0 0.00 0.00 0.00 46 1017.0
20200328172012 61 7 2.0 6.0 0.00 0.00 0.00 44 1017.0
20200328171008 62 354 2.0 7.0 0.00 0.00 0.00 42 1016.9
20200328170006 63 33 4.0 7.0 0.00 0.00 0.00 41 1016.9
20200328165000 63 17 4.0 10.0 0.00 0.00 0.00 39 1016.9
20200328163956 64 21 2.0 4.0 0.00 0.00 0.00 42 1016.9
20200328162953 64 1 3.0 7.0 0.00 0.00 0.00 40 1016.7
20200328161948 65 33 3.0 7.0 0.00 0.00 0.00 40 1016.8
20200328160945 65 5 2.0 5.0 0.00 0.00 0.00 39 1016.8
20200328155941 65 336 3.0 7.0 0.00 0.00 0.00 39 1016.9
20200328154937 65 9 4.0 7.0 0.00 0.00 0.00 39 1016.9
20200328153932 65 326 4.0 9.0 0.00 0.00 0.00 40 1016.9
20200328152929 65 3 3.0 7.0 0.00 0.00 0.00 39 1016.9
20200328151924 65 38 4.0 8.0 0.00 0.00 0.00 39 1016.9
20200328150921 65 329 5.0 8.0 0.00 0.00 0.00 38 1017.0
20200328145917 65 355 4.0 9.0 0.00 0.00 0.00 39 1017.0
20200328144913 65 350 4.0 7.0 0.00 0.00 0.00 40 1017.0
20200328143908 65 316 3.0 8.0 0.00 0.00 0.00 43 1017.0
20200328142905 65 25 4.0 8.0 0.00 0.00 0.00 41 1017.1
20200328141901 65 290 4.0 11.0 0.00 0.00 0.00 42 1017.3
20200328140858 64 10 4.0 8.0 0.00 0.00 0.00 42 1017.3
20200328135853 64 351 4.0 10.0 0.00 0.00 0.00 41 1017.4
20200328134849 64 1 6.0 9.0 0.00 0.00 0.00 42 1017.5
20200328133845 64 59 3.0 7.0 0.00 0.00 0.00 43 1017.6
20200328132842 64 337 3.0 10.0 0.00 0.00 0.00 45 1017.6
20200328131838 64 7 3.0 8.0 0.00 0.00 0.00 45 1017.7
20200328130833 63 342 3.0 9.0 0.00 0.00 0.00 46 1017.8
20200328125830 63 29 4.0 8.0 0.00 0.00 0.00 46 1017.8
20200328124826 63 331 3.0 8.0 0.00 0.00 0.00 49 1017.9
20200328123822 62 343 4.0 7.0 0.00 0.00 0.00 48 1018.1
20200328122818 62 321 4.0 8.0 0.00 0.00 0.00 48 1018.0
20200328121815 62 328 4.0 9.0 0.00 0.00 0.00 50 1018.2
20200328120810 61 70 3.0 8.0 0.00 0.00 0.00 51 1018.2
20200328115806 61 40 4.0 6.0 0.00 0.00 0.00 54 1018.4
20200328114802 60 337 4.0 9.0 0.00 0.00 0.00 53 1018.4
20200328113758 60 0 3.0 8.0 0.00 0.00 0.00 54 1018.5
20200328112754 59 26 3.0 8.0 0.00 0.00 0.00 57 1018.5
20200328111751 58 355 5.0 7.0 0.00 0.00 0.00 56 1018.6
20200328110746 58 57 3.0 6.0 0.00 0.00 0.00 57 1018.7
20200328105742 57 322 3.0 7.0 0.00 0.00 0.00 58 1018.6
20200328104738 57 19 3.0 6.0 0.00 0.00 0.00 58 1018.7
20200328103734 57 2 3.0 6.0 0.00 0.00 0.00 59 1018.6
20200328102730 56 0 3.0 8.0 0.00 0.00 0.00 59 1018.7
20200328101727 56 320 2.0 6.0 0.00 0.00 0.00 59 1018.8
20200328095719 55 32 3.0 5.0 0.00 0.00 0.00 60 1018.8
20200328094715 54 18 3.0 5.0 0.00 0.00 0.00 60 1018.7
20200328093711 54 310 2.0 3.0 0.00 0.00 0.00 62 1018.8
20200328092707 53 358 2.0 4.0 0.00 0.00 0.00 63 1018.8
20200328090700 51 18 2.0 5.0 0.00 0.00 0.00 66 1018.8
20200328085655 51 47 2.0 4.0 0.00 0.00 0.00 67 1018.9
20200328084652 50 22 2.0 6.0 0.00 0.00 0.00 70 1019.0
20200328083647 49 325 2.0 4.0 0.00 0.00 0.00 71 1018.8
20200328082643 49 3 2.0 3.0 0.00 0.00 0.00 72 1018.8
20200328081640 48 351 1.0 2.0 0.00 0.00 0.00 73 1018.9
20200328080636 48 7 0.0 1.0 0.00 0.00 0.00 72 1018.7
20200328075632 47 7 0.0 1.0 0.00 0.00 0.00 75 1018.7
20200328074617 46 7 0.0 1.0 0.00 0.00 0.00 75 1018.6
20200328073614 44 7 0.0 0.0 0.00 0.00 0.00 79 1018.5
20200328072610 42 7 0.0 0.0 0.00 0.00 0.00 82 1018.5
20200328071606 41 7 0.0 0.0 0.00 0.00 0.00 85 1018.3
20200328070602 39 7 0.0 0.0 0.00 0.00 0.00 88 1018.4
20200328065558 37 7 1.0 3.0 0.00 0.00 0.00 88 1018.2